owner,sensor,date,latitude,longitude,air_pressure(mBar),qcFlag 
TABS,ioos:station:wmo:42043:1,2008-12-01T00:00:00Z,28.9818,-94.9186,1010.96,11111222 
TABS,ioos:station:wmo:42043:1,2008-12-01T00:30:00Z,28.9818,-94.9186,1011.53,11111222 
TABS,ioos:station:wmo:42043:1,2008-12-01T01:00:00Z,28.9818,-94.9186,1012.05,11111222 
TABS,ioos:station:wmo:42043:1,2008-12-01T01:30:00Z,28.9818,-94.9186,1012.01,11111222 
TABS,ioos:station:wmo:42043:1,2008-12-01T02:00:00Z,28.9818,-94.9186,1012.42,11111222 
TABS,ioos:station:wmo:42043:1,2008-12-01T02:30:00Z,28.9818,-94.9186,1012.89,11111222 
TABS,ioos:station:wmo:42043:1,2008-12-01T03:00:00Z,28.9818,-94.9186,1012.83,11111222 
TABS,ioos:station:wmo:42043:1,2008-12-01T03:30:00Z,28.9818,-94.9186,1013.32,11111222 
TABS,ioos:station:wmo:42043:1,2008-12-01T04:00:00Z,28.9818,-94.9186,1013.6,11111222 
TABS,ioos:station:wmo:42043:1,2008-12-01T04:30:00Z,28.9818,-94.9186,1013.54,11111222 
TABS,ioos:station:wmo:42043:1,2008-12-01T05:00:00Z,28.9818,-94.9186,1014.68,11111222 
TABS,ioos:station:wmo:42043:1,2008-12-01T05:30:00Z,28.9818,-94.9186,1014.59,11111222 
TABS,ioos:station:wmo:42043:1,2008-12-01T06:00:00Z,28.9818,-94.9186,1014.98,11111222 
TABS,ioos:station:wmo:42043:1,2008-12-01T06:30:00Z,28.9818,-94.9186,1014.41,11111222 
TABS,ioos:station:wmo:42043:1,2008-12-01T07:00:00Z,28.9818,-94.9186,1014.55,11111222 
TABS,ioos:station:wmo:42043:1,2008-12-01T07:30:00Z,28.9818,-94.9186,1015.25,11111222 
TABS,ioos:station:wmo:42043:1,2008-12-01T08:00:00Z,28.9818,-94.9186,1016.01,11111222 
TABS,ioos:station:wmo:42043:1,2008-12-01T08:30:00Z,28.9818,-94.9186,1015.46,11111222 
TABS,ioos:station:wmo:42043:1,2008-12-01T09:00:00Z,28.9818,-94.9186,1015.72,11111222 
TABS,ioos:station:wmo:42043:1,2008-12-01T09:30:00Z,28.9818,-94.9186,1016.0,11111222 
TABS,ioos:station:wmo:42043:1,2008-12-01T10:00:00Z,28.9818,-94.9186,1015.91,11111222 
TABS,ioos:station:wmo:42043:1,2008-12-01T10:30:00Z,28.9818,-94.9186,1016.21,11111222 
TABS,ioos:station:wmo:42043:1,2008-12-01T11:00:00Z,28.9818,-94.9186,1016.78,11111222 
TABS,ioos:station:wmo:42043:1,2008-12-01T11:30:00Z,28.9818,-94.9186,1016.75,11111222 
TABS,ioos:station:wmo:42043:1,2008-12-01T12:00:00Z,28.9818,-94.9186,1017.13,11111222 
TABS,ioos:station:wmo:42043:1,2008-12-01T12:30:00Z,28.9818,-94.9186,1017.55,11111222 
TABS,ioos:station:wmo:42043:1,2008-12-01T13:00:00Z,28.9818,-94.9186,1018.44,11111222 
TABS,ioos:station:wmo:42043:1,2008-12-01T13:30:00Z,28.9818,-94.9186,1018.81,11111222 
TABS,ioos:station:wmo:42043:1,2008-12-01T14:00:00Z,28.9818,-94.9186,1019.63,11111222 
TABS,ioos:station:wmo:42043:1,2008-12-01T14:30:00Z,28.9818,-94.9186,1019.62,11111222 
TABS,ioos:station:wmo:42043:1,2008-12-01T15:00:00Z,28.9818,-94.9186,1020.47,11111222 
TABS,ioos:station:wmo:42043:1,2008-12-01T15:30:00Z,28.9818,-94.9186,1021.0,11111222 
TABS,ioos:station:wmo:42043:1,2008-12-01T16:00:00Z,28.9818,-94.9186,1021.24,11111222 
TABS,ioos:station:wmo:42043:1,2008-12-01T16:30:00Z,28.9818,-94.9186,1021.4,11111222 
TABS,ioos:station:wmo:42043:1,2008-12-01T17:00:00Z,28.9818,-94.9186,1021.24,11111222 
TABS,ioos:station:wmo:42043:1,2008-12-01T17:30:00Z,28.9818,-94.9186,1021.23,11111222 
TABS,ioos:station:wmo:42043:1,2008-12-01T18:00:00Z,28.9818,-94.9186,1021.15,11111222 
TABS,ioos:station:wmo:42043:1,2008-12-01T18:30:00Z,28.9818,-94.9186,1020.23,11111222 
TABS,ioos:station:wmo:42043:1,2008-12-01T19:00:00Z,28.9818,-94.9186,1020.32,11111222 
TABS,ioos:station:wmo:42043:1,2008-12-01T19:30:00Z,28.9818,-94.9186,1020.59,11111222 
TABS,ioos:station:wmo:42043:1,2008-12-01T20:00:00Z,28.9818,-94.9186,1020.29,11111222 
TABS,ioos:station:wmo:42043:1,2008-12-01T20:30:00Z,28.9818,-94.9186,1020.67,11111222 
TABS,ioos:station:wmo:42043:1,2008-12-01T21:00:00Z,28.9818,-94.9186,1021.12,11111222 
TABS,ioos:station:wmo:42043:1,2008-12-01T21:30:00Z,28.9818,-94.9186,1020.91,11111222 
TABS,ioos:station:wmo:42043:1,2008-12-01T22:00:00Z,28.9818,-94.9186,1020.96,11111222 
TABS,ioos:station:wmo:42043:1,2008-12-01T22:30:00Z,28.9818,-94.9186,1021.52,11111222 
TABS,ioos:station:wmo:42043:1,2008-12-01T23:00:00Z,28.9818,-94.9186,1021.85,11111222 
TABS,ioos:station:wmo:42043:1,2008-12-01T23:30:00Z,28.9818,-94.9186,1022.15,11111222 
TABS,ioos:station:wmo:42043:1,2008-12-02T00:00:00Z,28.9818,-94.9186,1022.65,11111222 
TABS,ioos:station:wmo:42043:1,2008-12-02T00:30:00Z,28.9818,-94.9186,1023.33,11111222 
TABS,ioos:station:wmo:42043:1,2008-12-02T01:00:00Z,28.9818,-94.9186,1024.14,11111222 
TABS,ioos:station:wmo:42043:1,2008-12-02T01:30:00Z,28.9818,-94.9186,1024.61,11111222 
TABS,ioos:station:wmo:42043:1,2008-12-02T02:00:00Z,28.9818,-94.9186,1025.14,11111222 
TABS,ioos:station:wmo:42043:1,2008-12-02T02:30:00Z,28.9818,-94.9186,1025.4,11111222 
TABS,ioos:station:wmo:42043:1,2008-12-02T03:00:00Z,28.9818,-94.9186,1025.64,11111222 
TABS,ioos:station:wmo:42043:1,2008-12-02T03:30:00Z,28.9818,-94.9186,1025.81,11111222 
TABS,ioos:station:wmo:42043:1,2008-12-02T04:00:00Z,28.9818,-94.9186,1025.94,11111222 
TABS,ioos:station:wmo:42043:1,2008-12-02T04:30:00Z,28.9818,-94.9186,1026.2,11111222 
TABS,ioos:station:wmo:42043:1,2008-12-02T05:00:00Z,28.9818,-94.9186,1026.12,11111222 
TABS,ioos:station:wmo:42043:1,2008-12-02T05:30:00Z,28.9818,-94.9186,1026.05,11111222 
TABS,ioos:station:wmo:42043:1,2008-12-02T06:00:00Z,28.9818,-94.9186,1026.2,11111222 
TABS,ioos:station:wmo:42043:1,2008-12-02T06:30:00Z,28.9818,-94.9186,1026.2,11111222 
TABS,ioos:station:wmo:42043:1,2008-12-02T07:00:00Z,28.9818,-94.9186,1026.01,11111222 
TABS,ioos:station:wmo:42043:1,2008-12-02T07:30:00Z,28.9818,-94.9186,1026.11,11111222 
TABS,ioos:station:wmo:42043:1,2008-12-02T08:00:00Z,28.9818,-94.9186,1025.8,11111222 
TABS,ioos:station:wmo:42043:1,2008-12-02T08:30:00Z,28.9818,-94.9186,1025.6,11111222 
TABS,ioos:station:wmo:42043:1,2008-12-02T09:00:00Z,28.9818,-94.9186,1025.27,11111222 
TABS,ioos:station:wmo:42043:1,2008-12-02T09:30:00Z,28.9818,-94.9186,1025.52,11111222 
TABS,ioos:station:wmo:42043:1,2008-12-02T10:00:00Z,28.9818,-94.9186,1025.6,11111222 
TABS,ioos:station:wmo:42043:1,2008-12-02T10:30:00Z,28.9818,-94.9186,1025.45,11111222 
TABS,ioos:station:wmo:42043:1,2008-12-02T11:00:00Z,28.9818,-94.9186,1025.29,11111222 
TABS,ioos:station:wmo:42043:1,2008-12-02T11:30:00Z,28.9818,-94.9186,1024.93,11111222 
TABS,ioos:station:wmo:42043:1,2008-12-02T12:00:00Z,28.9818,-94.9186,1024.77,11111222 
TABS,ioos:station:wmo:42043:1,2008-12-02T12:30:00Z,28.9818,-94.9186,1024.9,11111222 
TABS,ioos:station:wmo:42043:1,2008-12-02T13:00:00Z,28.9818,-94.9186,1024.89,11111222 
TABS,ioos:station:wmo:42043:1,2008-12-02T13:30:00Z,28.9818,-94.9186,1025.04,11111222 
TABS,ioos:station:wmo:42043:1,2008-12-02T14:00:00Z,28.9818,-94.9186,1025.2,11111222 
TABS,ioos:station:wmo:42043:1,2008-12-02T14:30:00Z,28.9818,-94.9186,1025.23,11111222 
TABS,ioos:station:wmo:42043:1,2008-12-02T15:00:00Z,28.9818,-94.9186,1025.54,11111222 
TABS,ioos:station:wmo:42043:1,2008-12-02T15:30:00Z,28.9818,-94.9186,1025.9,11111222 
TABS,ioos:station:wmo:42043:1,2008-12-02T16:00:00Z,28.9818,-94.9186,1026.05,11111222 
TABS,ioos:station:wmo:42043:1,2008-12-02T16:30:00Z,28.9818,-94.9186,1025.95,11111222 
TABS,ioos:station:wmo:42043:1,2008-12-02T17:00:00Z,28.9818,-94.9186,1025.66,11111222 
TABS,ioos:station:wmo:42043:1,2008-12-02T17:30:00Z,28.9818,-94.9186,1025.22,11111222 
TABS,ioos:station:wmo:42043:1,2008-12-02T18:00:00Z,28.9818,-94.9186,1024.73,11111222 
TABS,ioos:station:wmo:42043:1,2008-12-02T18:30:00Z,28.9818,-94.9186,1023.73,11111222 
TABS,ioos:station:wmo:42043:1,2008-12-02T19:00:00Z,28.9818,-94.9186,1023.13,11111222 
TABS,ioos:station:wmo:42043:1,2008-12-02T19:30:00Z,28.9818,-94.9186,1022.75,11111222 
TABS,ioos:station:wmo:42043:1,2008-12-02T20:00:00Z,28.9818,-94.9186,1022.35,11111222 
TABS,ioos:station:wmo:42043:1,2008-12-02T20:30:00Z,28.9818,-94.9186,1022.05,11111222 
TABS,ioos:station:wmo:42043:1,2008-12-02T21:00:00Z,28.9818,-94.9186,1021.55,11111222 
TABS,ioos:station:wmo:42043:1,2008-12-02T21:30:00Z,28.9818,-94.9186,1021.13,11111222 
TABS,ioos:station:wmo:42043:1,2008-12-02T22:00:00Z,28.9818,-94.9186,1020.83,11111222 
TABS,ioos:station:wmo:42043:1,2008-12-02T22:30:00Z,28.9818,-94.9186,1020.7,11111222 
TABS,ioos:station:wmo:42043:1,2008-12-02T23:00:00Z,28.9818,-94.9186,1020.38,11111222 
TABS,ioos:station:wmo:42043:1,2008-12-02T23:30:00Z,28.9818,-94.9186,1020.16,11111222 
TABS,ioos:station:wmo:42043:1,2008-12-03T00:00:00Z,28.9818,-94.9186,1020.01,11111222 
TABS,ioos:station:wmo:42043:1,2008-12-03T00:30:00Z,28.9818,-94.9186,1020.18,11111222 
TABS,ioos:station:wmo:42043:1,2008-12-03T01:00:00Z,28.9818,-94.9186,1020.21,11111222 
TABS,ioos:station:wmo:42043:1,2008-12-03T01:30:00Z,28.9818,-94.9186,1020.06,11111222 
TABS,ioos:station:wmo:42043:1,2008-12-03T02:00:00Z,28.9818,-94.9186,1019.91,11111222 
TABS,ioos:station:wmo:42043:1,2008-12-03T02:30:00Z,28.9818,-94.9186,1020.06,11111222 
TABS,ioos:station:wmo:42043:1,2008-12-03T03:00:00Z,28.9818,-94.9186,1019.81,11111222 
TABS,ioos:station:wmo:42043:1,2008-12-03T03:30:00Z,28.9818,-94.9186,1019.4,11111222 
TABS,ioos:station:wmo:42043:1,2008-12-03T04:00:00Z,28.9818,-94.9186,1019.06,11111222 
TABS,ioos:station:wmo:42043:1,2008-12-03T04:30:00Z,28.9818,-94.9186,1019.13,11111222 
TABS,ioos:station:wmo:42043:1,2008-12-03T05:00:00Z,28.9818,-94.9186,1018.86,11111222 
TABS,ioos:station:wmo:42043:1,2008-12-03T05:30:00Z,28.9818,-94.9186,1018.6,11111222 
TABS,ioos:station:wmo:42043:1,2008-12-03T06:00:00Z,28.9818,-94.9186,1018.32,11111222 
TABS,ioos:station:wmo:42043:1,2008-12-03T06:30:00Z,28.9818,-94.9186,1018.0,11111222 
TABS,ioos:station:wmo:42043:1,2008-12-03T07:00:00Z,28.9818,-94.9186,1017.77,11111222 
TABS,ioos:station:wmo:42043:1,2008-12-03T07:30:00Z,28.9818,-94.9186,1017.54,11111222 
TABS,ioos:station:wmo:42043:1,2008-12-03T08:00:00Z,28.9818,-94.9186,1016.87,11111222 
TABS,ioos:station:wmo:42043:1,2008-12-03T08:30:00Z,28.9818,-94.9186,1016.95,11111222 
TABS,ioos:station:wmo:42043:1,2008-12-03T09:00:00Z,28.9818,-94.9186,1016.68,11111222 
TABS,ioos:station:wmo:42043:1,2008-12-03T09:30:00Z,28.9818,-94.9186,1016.59,11111222 
TABS,ioos:station:wmo:42043:1,2008-12-03T10:00:00Z,28.9818,-94.9186,1016.36,11111222 
TABS,ioos:station:wmo:42043:1,2008-12-03T10:30:00Z,28.9818,-94.9186,1016.03,11111222 
TABS,ioos:station:wmo:42043:1,2008-12-03T11:00:00Z,28.9818,-94.9186,1015.82,11111222 
TABS,ioos:station:wmo:42043:1,2008-12-03T11:30:00Z,28.9818,-94.9186,1015.81,11111222 
TABS,ioos:station:wmo:42043:1,2008-12-03T12:00:00Z,28.9818,-94.9186,1015.81,11111222 
TABS,ioos:station:wmo:42043:1,2008-12-03T12:30:00Z,28.9818,-94.9186,1015.8,11111222 
TABS,ioos:station:wmo:42043:1,2008-12-03T13:00:00Z,28.9818,-94.9186,1015.83,11111222 
TABS,ioos:station:wmo:42043:1,2008-12-03T13:30:00Z,28.9818,-94.9186,1015.84,11111222 
TABS,ioos:station:wmo:42043:1,2008-12-03T14:00:00Z,28.9818,-94.9186,1016.2,11111222 
TABS,ioos:station:wmo:42043:1,2008-12-03T14:30:00Z,28.9818,-94.9186,1016.6,11111222 
TABS,ioos:station:wmo:42043:1,2008-12-03T15:00:00Z,28.9818,-94.9186,1016.93,11111222 
TABS,ioos:station:wmo:42043:1,2008-12-03T15:30:00Z,28.9818,-94.9186,1017.21,11111222 
TABS,ioos:station:wmo:42043:1,2008-12-03T16:00:00Z,28.9818,-94.9186,1017.31,11111222 
TABS,ioos:station:wmo:42043:1,2008-12-03T16:30:00Z,28.9818,-94.9186,1016.98,11111222 
TABS,ioos:station:wmo:42043:1,2008-12-03T17:00:00Z,28.9818,-94.9186,1016.78,11111222 
TABS,ioos:station:wmo:42043:1,2008-12-03T17:30:00Z,28.9818,-94.9186,1016.56,11111222 
TABS,ioos:station:wmo:42043:1,2008-12-03T18:00:00Z,28.9818,-94.9186,1016.11,11111222 
TABS,ioos:station:wmo:42043:1,2008-12-03T18:30:00Z,28.9818,-94.9186,1015.53,11111222 
TABS,ioos:station:wmo:42043:1,2008-12-03T19:00:00Z,28.9818,-94.9186,1014.77,11111222 
TABS,ioos:station:wmo:42043:1,2008-12-03T19:30:00Z,28.9818,-94.9186,1014.28,11111222 
TABS,ioos:station:wmo:42043:1,2008-12-03T20:00:00Z,28.9818,-94.9186,1014.07,11111222 
TABS,ioos:station:wmo:42043:1,2008-12-03T20:30:00Z,28.9818,-94.9186,1013.87,11111222 
TABS,ioos:station:wmo:42043:1,2008-12-03T21:00:00Z,28.9818,-94.9186,1013.82,11111222 
TABS,ioos:station:wmo:42043:1,2008-12-03T21:30:00Z,28.9818,-94.9186,1013.8,11111222 
TABS,ioos:station:wmo:42043:1,2008-12-03T22:00:00Z,28.9818,-94.9186,1013.91,11111222 
TABS,ioos:station:wmo:42043:1,2008-12-03T22:30:00Z,28.9818,-94.9186,1014.02,11111222 
TABS,ioos:station:wmo:42043:1,2008-12-03T23:00:00Z,28.9818,-94.9186,1014.05,11111222 
TABS,ioos:station:wmo:42043:1,2008-12-03T23:30:00Z,28.9818,-94.9186,1014.1,11111222 
TABS,ioos:station:wmo:42043:1,2008-12-04T00:00:00Z,28.9818,-94.9186,1014.06,11111222 
TABS,ioos:station:wmo:42043:1,2008-12-04T00:30:00Z,28.9818,-94.9186,1014.53,11111222 
TABS,ioos:station:wmo:42043:1,2008-12-04T01:00:00Z,28.9818,-94.9186,1014.89,11111222 
TABS,ioos:station:wmo:42043:1,2008-12-04T01:30:00Z,28.9818,-94.9186,1015.28,11111222 
TABS,ioos:station:wmo:42043:1,2008-12-04T02:00:00Z,28.9818,-94.9186,1015.44,11111222 
TABS,ioos:station:wmo:42043:1,2008-12-04T02:30:00Z,28.9818,-94.9186,1015.41,11111222 
TABS,ioos:station:wmo:42043:1,2008-12-04T03:00:00Z,28.9818,-94.9186,1015.9,11111222 
TABS,ioos:station:wmo:42043:1,2008-12-04T03:30:00Z,28.9818,-94.9186,1015.66,11111222 
TABS,ioos:station:wmo:42043:1,2008-12-04T04:00:00Z,28.9818,-94.9186,1015.77,11111222 
TABS,ioos:station:wmo:42043:1,2008-12-04T04:30:00Z,28.9818,-94.9186,1016.3,11111222 
TABS,ioos:station:wmo:42043:1,2008-12-04T05:00:00Z,28.9818,-94.9186,1016.43,11111222 
TABS,ioos:station:wmo:42043:1,2008-12-04T05:30:00Z,28.9818,-94.9186,1017.62,11111222 
TABS,ioos:station:wmo:42043:1,2008-12-04T06:00:00Z,28.9818,-94.9186,1017.74,11111222 
TABS,ioos:station:wmo:42043:1,2008-12-04T06:30:00Z,28.9818,-94.9186,1018.3,11111222 
TABS,ioos:station:wmo:42043:1,2008-12-04T07:00:00Z,28.9818,-94.9186,1018.72,11111222 
TABS,ioos:station:wmo:42043:1,2008-12-04T07:30:00Z,28.9818,-94.9186,1019.01,11111222 
TABS,ioos:station:wmo:42043:1,2008-12-04T08:00:00Z,28.9818,-94.9186,1018.76,11111222 
TABS,ioos:station:wmo:42043:1,2008-12-04T08:30:00Z,28.9818,-94.9186,1019.21,11111222 
TABS,ioos:station:wmo:42043:1,2008-12-04T09:00:00Z,28.9818,-94.9186,1019.19,11111222 
TABS,ioos:station:wmo:42043:1,2008-12-04T09:30:00Z,28.9818,-94.9186,1019.06,11111222 
TABS,ioos:station:wmo:42043:1,2008-12-04T10:00:00Z,28.9818,-94.9186,1019.6,11111222 
TABS,ioos:station:wmo:42043:1,2008-12-04T10:30:00Z,28.9818,-94.9186,1020.21,11111222 
TABS,ioos:station:wmo:42043:1,2008-12-04T11:00:00Z,28.9818,-94.9186,1020.61,11111222 
TABS,ioos:station:wmo:42043:1,2008-12-04T11:30:00Z,28.9818,-94.9186,1021.31,11111222 
TABS,ioos:station:wmo:42043:1,2008-12-04T12:00:00Z,28.9818,-94.9186,1021.72,11111222 
TABS,ioos:station:wmo:42043:1,2008-12-04T12:30:00Z,28.9818,-94.9186,1022.25,11111222 
TABS,ioos:station:wmo:42043:1,2008-12-04T13:00:00Z,28.9818,-94.9186,1022.62,11111222 
TABS,ioos:station:wmo:42043:1,2008-12-04T13:30:00Z,28.9818,-94.9186,1023.11,11111222 
TABS,ioos:station:wmo:42043:1,2008-12-04T14:00:00Z,28.9818,-94.9186,1023.26,11111222 
TABS,ioos:station:wmo:42043:1,2008-12-04T14:30:00Z,28.9818,-94.9186,1023.75,11111222 
TABS,ioos:station:wmo:42043:1,2008-12-04T15:00:00Z,28.9818,-94.9186,1024.05,11111222 
TABS,ioos:station:wmo:42043:1,2008-12-04T15:30:00Z,28.9818,-94.9186,1024.2,11111222 
TABS,ioos:station:wmo:42043:1,2008-12-04T16:00:00Z,28.9818,-94.9186,1024.73,11111222 
TABS,ioos:station:wmo:42043:1,2008-12-04T16:30:00Z,28.9818,-94.9186,1024.85,11111222 
TABS,ioos:station:wmo:42043:1,2008-12-04T17:00:00Z,28.9818,-94.9186,1025.1,11111222 
TABS,ioos:station:wmo:42043:1,2008-12-04T17:30:00Z,28.9818,-94.9186,1024.56,11111222 
TABS,ioos:station:wmo:42043:1,2008-12-04T18:00:00Z,28.9818,-94.9186,1024.13,11111222 
TABS,ioos:station:wmo:42043:1,2008-12-04T18:30:00Z,28.9818,-94.9186,1023.73,11111222 
TABS,ioos:station:wmo:42043:1,2008-12-04T19:00:00Z,28.9818,-94.9186,1023.26,11111222 
TABS,ioos:station:wmo:42043:1,2008-12-04T19:30:00Z,28.9818,-94.9186,1023.39,11111222 
TABS,ioos:station:wmo:42043:1,2008-12-04T20:00:00Z,28.9818,-94.9186,1022.91,11111222 
TABS,ioos:station:wmo:42043:1,2008-12-04T20:30:00Z,28.9818,-94.9186,1023.43,11111222 
TABS,ioos:station:wmo:42043:1,2008-12-04T21:00:00Z,28.9818,-94.9186,1023.68,11111222 
TABS,ioos:station:wmo:42043:1,2008-12-04T21:30:00Z,28.9818,-94.9186,1023.72,11111222 
TABS,ioos:station:wmo:42043:1,2008-12-04T22:00:00Z,28.9818,-94.9186,1023.92,11111222 
TABS,ioos:station:wmo:42043:1,2008-12-04T22:30:00Z,28.9818,-94.9186,1024.34,11111222 
TABS,ioos:station:wmo:42043:1,2008-12-04T23:00:00Z,28.9818,-94.9186,1024.62,11111222 
TABS,ioos:station:wmo:42043:1,2008-12-04T23:30:00Z,28.9818,-94.9186,1025.03,11111222 
TABS,ioos:station:wmo:42043:1,2008-12-05T00:00:00Z,28.9818,-94.9186,1025.22,11111222 
TABS,ioos:station:wmo:42043:1,2008-12-05T00:30:00Z,28.9818,-94.9186,1025.81,11111222 
TABS,ioos:station:wmo:42043:1,2008-12-05T01:00:00Z,28.9818,-94.9186,1025.91,11111222 
TABS,ioos:station:wmo:42043:1,2008-12-05T01:30:00Z,28.9818,-94.9186,1026.26,11111222 
TABS,ioos:station:wmo:42043:1,2008-12-05T02:00:00Z,28.9818,-94.9186,1026.47,11111222 
TABS,ioos:station:wmo:42043:1,2008-12-05T02:30:00Z,28.9818,-94.9186,1026.36,11111222 
TABS,ioos:station:wmo:42043:1,2008-12-05T03:00:00Z,28.9818,-94.9186,1026.63,11111222 
TABS,ioos:station:wmo:42043:1,2008-12-05T03:30:00Z,28.9818,-94.9186,1026.77,11111222 
TABS,ioos:station:wmo:42043:1,2008-12-05T04:00:00Z,28.9818,-94.9186,1026.64,11111222 
TABS,ioos:station:wmo:42043:1,2008-12-05T04:30:00Z,28.9818,-94.9186,1026.93,11111222 
TABS,ioos:station:wmo:42043:1,2008-12-05T05:00:00Z,28.9818,-94.9186,1027.26,11111222 
TABS,ioos:station:wmo:42043:1,2008-12-05T05:30:00Z,28.9818,-94.9186,1027.15,11111222 
TABS,ioos:station:wmo:42043:1,2008-12-05T06:00:00Z,28.9818,-94.9186,1027.3,11111222 
TABS,ioos:station:wmo:42043:1,2008-12-05T06:30:00Z,28.9818,-94.9186,1026.81,11111222 
TABS,ioos:station:wmo:42043:1,2008-12-05T07:00:00Z,28.9818,-94.9186,1026.91,11111222 
TABS,ioos:station:wmo:42043:1,2008-12-05T07:30:00Z,28.9818,-94.9186,1027.19,11111222 
TABS,ioos:station:wmo:42043:1,2008-12-05T08:00:00Z,28.9818,-94.9186,1027.0,11111222 
TABS,ioos:station:wmo:42043:1,2008-12-05T08:30:00Z,28.9818,-94.9186,1027.05,11111222 
TABS,ioos:station:wmo:42043:1,2008-12-05T09:00:00Z,28.9818,-94.9186,1026.67,11111222 
TABS,ioos:station:wmo:42043:1,2008-12-05T09:30:00Z,28.9818,-94.9186,1027.08,11111222 
TABS,ioos:station:wmo:42043:1,2008-12-05T10:00:00Z,28.9818,-94.9186,1027.06,11111222 
TABS,ioos:station:wmo:42043:1,2008-12-05T10:30:00Z,28.9818,-94.9186,1027.25,11111222 
TABS,ioos:station:wmo:42043:1,2008-12-05T11:00:00Z,28.9818,-94.9186,1027.39,11111222 
TABS,ioos:station:wmo:42043:1,2008-12-05T11:30:00Z,28.9818,-94.9186,1027.7,11111222 
TABS,ioos:station:wmo:42043:1,2008-12-05T12:00:00Z,28.9818,-94.9186,1028.06,11111222 
TABS,ioos:station:wmo:42043:1,2008-12-05T12:30:00Z,28.9818,-94.9186,1028.45,11111222 
TABS,ioos:station:wmo:42043:1,2008-12-05T13:00:00Z,28.9818,-94.9186,1028.69,11111222 
TABS,ioos:station:wmo:42043:1,2008-12-05T13:30:00Z,28.9818,-94.9186,1028.73,11111222 
TABS,ioos:station:wmo:42043:1,2008-12-05T14:00:00Z,28.9818,-94.9186,1028.36,11111222 
TABS,ioos:station:wmo:42043:1,2008-12-05T14:30:00Z,28.9818,-94.9186,1028.88,11111222 
TABS,ioos:station:wmo:42043:1,2008-12-05T15:00:00Z,28.9818,-94.9186,1029.3,11111222 
TABS,ioos:station:wmo:42043:1,2008-12-05T15:30:00Z,28.9818,-94.9186,1029.9,11111222 
TABS,ioos:station:wmo:42043:1,2008-12-05T16:00:00Z,28.9818,-94.9186,1029.82,11111222 
TABS,ioos:station:wmo:42043:1,2008-12-05T16:30:00Z,28.9818,-94.9186,1029.67,11111222 
TABS,ioos:station:wmo:42043:1,2008-12-05T17:00:00Z,28.9818,-94.9186,1029.1,11111222 
TABS,ioos:station:wmo:42043:1,2008-12-05T17:30:00Z,28.9818,-94.9186,1028.78,11111222 
TABS,ioos:station:wmo:42043:1,2008-12-05T18:00:00Z,28.9818,-94.9186,1028.37,11111222 
TABS,ioos:station:wmo:42043:1,2008-12-05T18:30:00Z,28.9818,-94.9186,1027.56,11111222 
TABS,ioos:station:wmo:42043:1,2008-12-05T19:00:00Z,28.9818,-94.9186,1026.76,11111222 
TABS,ioos:station:wmo:42043:1,2008-12-05T19:30:00Z,28.9818,-94.9186,1026.38,11111222 
TABS,ioos:station:wmo:42043:1,2008-12-05T20:00:00Z,28.9818,-94.9186,1025.98,11111222 
TABS,ioos:station:wmo:42043:1,2008-12-05T20:30:00Z,28.9818,-94.9186,1025.7,11111222 
TABS,ioos:station:wmo:42043:1,2008-12-05T21:00:00Z,28.9818,-94.9186,1025.61,11111222 
TABS,ioos:station:wmo:42043:1,2008-12-05T21:30:00Z,28.9818,-94.9186,1025.12,11111222 
TABS,ioos:station:wmo:42043:1,2008-12-05T22:00:00Z,28.9818,-94.9186,1025.29,11111222 
TABS,ioos:station:wmo:42043:1,2008-12-05T22:30:00Z,28.9818,-94.9186,1024.11,11111222 
TABS,ioos:station:wmo:42043:1,2008-12-05T23:00:00Z,28.9818,-94.9186,1024.1,11111222 
TABS,ioos:station:wmo:42043:1,2008-12-05T23:30:00Z,28.9818,-94.9186,1023.78,11111222 
TABS,ioos:station:wmo:42043:1,2008-12-06T00:00:00Z,28.9818,-94.9186,1024.2,11111222 
TABS,ioos:station:wmo:42043:1,2008-12-06T00:30:00Z,28.9818,-94.9186,1024.52,11111222 
TABS,ioos:station:wmo:42043:1,2008-12-06T01:00:00Z,28.9818,-94.9186,1024.19,11111222 
TABS,ioos:station:wmo:42043:1,2008-12-06T01:30:00Z,28.9818,-94.9186,1024.48,11111222 
TABS,ioos:station:wmo:42043:1,2008-12-06T02:00:00Z,28.9818,-94.9186,1024.15,11111222 
TABS,ioos:station:wmo:42043:1,2008-12-06T02:30:00Z,28.9818,-94.9186,1024.32,11111222 
TABS,ioos:station:wmo:42043:1,2008-12-06T03:00:00Z,28.9818,-94.9186,1024.0,11111222 
TABS,ioos:station:wmo:42043:1,2008-12-06T03:30:00Z,28.9818,-94.9186,1024.11,11111222 
TABS,ioos:station:wmo:42043:1,2008-12-06T04:00:00Z,28.9818,-94.9186,1023.81,11111222 
TABS,ioos:station:wmo:42043:1,2008-12-06T04:30:00Z,28.9818,-94.9186,1024.08,11111222 
TABS,ioos:station:wmo:42043:1,2008-12-06T05:00:00Z,28.9818,-94.9186,1023.87,11111222 
TABS,ioos:station:wmo:42043:1,2008-12-06T05:30:00Z,28.9818,-94.9186,1023.62,11111222 
TABS,ioos:station:wmo:42043:1,2008-12-06T06:00:00Z,28.9818,-94.9186,1023.32,11111222 
TABS,ioos:station:wmo:42043:1,2008-12-06T06:30:00Z,28.9818,-94.9186,1022.99,11111222 
TABS,ioos:station:wmo:42043:1,2008-12-06T07:00:00Z,28.9818,-94.9186,1022.69,11111222 
TABS,ioos:station:wmo:42043:1,2008-12-06T07:30:00Z,28.9818,-94.9186,1022.84,11111222 
TABS,ioos:station:wmo:42043:1,2008-12-06T08:00:00Z,28.9818,-94.9186,1022.38,11111222 
TABS,ioos:station:wmo:42043:1,2008-12-06T08:30:00Z,28.9818,-94.9186,1022.15,11111222 
TABS,ioos:station:wmo:42043:1,2008-12-06T09:00:00Z,28.9818,-94.9186,1021.63,11111222 
TABS,ioos:station:wmo:42043:1,2008-12-06T09:30:00Z,28.9818,-94.9186,1021.44,11111222 
TABS,ioos:station:wmo:42043:1,2008-12-06T10:00:00Z,28.9818,-94.9186,1021.2,11111222 
TABS,ioos:station:wmo:42043:1,2008-12-06T10:30:00Z,28.9818,-94.9186,1020.96,11111222 
TABS,ioos:station:wmo:42043:1,2008-12-06T11:00:00Z,28.9818,-94.9186,1020.89,11111222 
TABS,ioos:station:wmo:42043:1,2008-12-06T11:30:00Z,28.9818,-94.9186,1021.13,11111222 
TABS,ioos:station:wmo:42043:1,2008-12-06T12:00:00Z,28.9818,-94.9186,1021.69,11111222 
TABS,ioos:station:wmo:42043:1,2008-12-06T12:30:00Z,28.9818,-94.9186,1022.05,11111222 
TABS,ioos:station:wmo:42043:1,2008-12-06T13:00:00Z,28.9818,-94.9186,1022.39,11111222 
TABS,ioos:station:wmo:42043:1,2008-12-06T13:30:00Z,28.9818,-94.9186,1022.05,11111222 
TABS,ioos:station:wmo:42043:1,2008-12-06T14:00:00Z,28.9818,-94.9186,1022.32,11111222 
TABS,ioos:station:wmo:42043:1,2008-12-06T14:30:00Z,28.9818,-94.9186,1022.87,11111222 
TABS,ioos:station:wmo:42043:1,2008-12-06T15:00:00Z,28.9818,-94.9186,1023.16,11111222 
TABS,ioos:station:wmo:42043:1,2008-12-06T15:30:00Z,28.9818,-94.9186,1023.38,11111222 
TABS,ioos:station:wmo:42043:1,2008-12-06T16:00:00Z,28.9818,-94.9186,1023.48,11111222 
TABS,ioos:station:wmo:42043:1,2008-12-06T16:30:00Z,28.9818,-94.9186,1023.53,11111222 
TABS,ioos:station:wmo:42043:1,2008-12-06T17:00:00Z,28.9818,-94.9186,1023.43,11111222 
TABS,ioos:station:wmo:42043:1,2008-12-06T17:30:00Z,28.9818,-94.9186,1023.17,11111222 
TABS,ioos:station:wmo:42043:1,2008-12-06T18:00:00Z,28.9818,-94.9186,1022.53,11111222 
TABS,ioos:station:wmo:42043:1,2008-12-06T18:30:00Z,28.9818,-94.9186,1021.78,11111222 